Ana Sayfa
METAR-TAF:

METAR-TAF

Havaalanları :

Dinwiddie County Airport

Petersburg, Virginia, Amerika Birleşik Devletleri

Enlem: 37-11N, Boylam: 077-31W, yükseklik: 59 m

Güncel hava durumu gözlemi

Rapor saat 08:35 UTC de 20 dakika önce yapıldı.
Sakin rüzgar
Sıcaklık 16°C
Nem 88%
Basınç 1022 hPa
Görüş mesafesi: 16.1 km
1100 ft yükseklikte çok bulutlu

METAR: KPTB 250835Z AUTO 00000KT 10SM OVC011 16/14 A3017 RMK AO2 T01580139

Saat: 04:55 (08:55 UTC)


TAF: eksik

4.000'den fazla havaalanı için hava durumu gözlemleri ve tahminleri (METAR ve TAF raporları).

Kullanılabilir istasyonlar harita üzerinde sarı ve kırmızı noktalarla gösterilir.

İstasyonun adını görmek için fareyi noktanın üzerinde gezdirin.

Sonrasında hava gözlem ve tahminlerini görmek için tıklayın.

Haritayı değiştirmek için: yaklaştırmak için siyah artı işaretli yeşil düğmeye ve uzaklaştırmak için de eksi işaretli düğmeye hızla tıklayın; bitişik haritalar için yeşil okları kullanın.


METAR-TAF: